| time (UTC) | temp F | wind direction | speed MPH | gust MPH | rain 1hr in | rain 24hr in | rain mn in | humidity % | barometer mb |
| 20260510211507 | 85 | 7 | 7.0 | 15.0 | 0.00 | 0.00 | 0.00 | 12 | 1020.6 |
| 20260510211007 | 84 | 258 | 4.0 | 10.0 | 0.00 | 0.00 | 0.00 | 12 | 1020.4 |
| 20260510210546 | 86 | 305 | 9.0 | 11.0 | 0.00 | 0.00 | 0.00 | 12 | 1020.5 |
| 20260510210008 | 85 | 40 | 6.0 | 11.0 | 0.00 | 0.00 | 0.00 | 13 | 1020.5 |
| 20260510205546 | 86 | 99 | 3.0 | 7.0 | 0.00 | 0.00 | 0.00 | 13 | 1020.7 |
| 20260510205046 | 85 | 65 | 8.0 | 10.0 | 0.00 | 0.00 | 0.00 | 12 | 1020.5 |
| 20260510204547 | 84 | 50 | 4.0 | 9.0 | 0.00 | 0.00 | 0.00 | 13 | 1020.8 |
| 20260510204007 | 85 | 137 | 3.0 | 5.0 | 0.00 | 0.00 | 0.00 | 12 | 1020.9 |
| 20260510203546 | 83 | 352 | 2.0 | 9.0 | 0.00 | 0.00 | 0.00 | 13 | 1020.6 |
| 20260510203047 | 84 | 155 | 4.0 | 12.0 | 0.00 | 0.00 | 0.00 | 13 | 1020.6 |
| 20260510202507 | 86 | 173 | 3.0 | 4.0 | 0.00 | 0.00 | 0.00 | 13 | 1020.8 |
| 20260510202007 | 84 | 58 | 7.0 | 9.0 | 0.00 | 0.00 | 0.00 | 12 | 1020.8 |
| 20260510201547 | 84 | 1 | 4.0 | 9.0 | 0.00 | 0.00 | 0.00 | 12 | 1021.0 |
| 20260510201008 | 85 | 35 | 5.0 | 10.0 | 0.00 | 0.00 | 0.00 | 12 | 1020.8 |
| 20260510200547 | 85 | 330 | 7.0 | 14.0 | 0.00 | 0.00 | 0.00 | 12 | 1020.9 |
| 20260510200047 | 83 | 28 | 6.0 | 13.0 | 0.00 | 0.00 | 0.00 | 13 | 1020.9 |
| 20260510195547 | 84 | 273 | 2.0 | 8.0 | 0.00 | 0.00 | 0.00 | 13 | 1021.1 |
| 20260510195008 | 82 | 260 | 5.0 | 10.0 | 0.00 | 0.00 | 0.00 | 13 | 1021.0 |
| 20260510194546 | 81 | 269 | 5.0 | 13.0 | 0.00 | 0.00 | 0.00 | 14 | 1020.8 |
| 20260510194046 | 83 | 316 | 3.0 | 9.0 | 0.00 | 0.00 | 0.00 | 13 | 1021.1 |
| 20260510193547 | 82 | 7 | 5.0 | 12.0 | 0.00 | 0.00 | 0.00 | 13 | 1021.1 |
| 20260510193008 | 83 | 302 | 6.0 | 10.0 | 0.00 | 0.00 | 0.00 | 13 | 1020.9 |
| 20260510192547 | 83 | 28 | 6.0 | 9.0 | 0.00 | 0.00 | 0.00 | 13 | 1021.1 |
| 20260510192007 | 80 | 287 | 3.0 | 11.0 | 0.00 | 0.00 | 0.00 | 14 | 1021.0 |
| 20260510191546 | 82 | 239 | 5.0 | 12.0 | 0.00 | 0.00 | 0.00 | 13 | 1021.0 |
| 20260510191047 | 84 | 6 | 4.0 | 9.0 | 0.00 | 0.00 | 0.00 | 13 | 1021.3 |
| 20260510190547 | 82 | 3 | 3.0 | 5.0 | 0.00 | 0.00 | 0.00 | 13 | 1021.1 |
| 20260510190007 | 82 | 11 | 5.0 | 9.0 | 0.00 | 0.00 | 0.00 | 13 | 1021.3 |
| 20260510185547 | 83 | 46 | 2.0 | 3.0 | 0.00 | 0.00 | 0.00 | 14 | 1021.3 |
| 20260510185047 | 82 | 46 | 8.0 | 11.0 | 0.00 | 0.00 | 0.00 | 14 | 1021.5 |
| 20260510184507 | 83 | 332 | 7.0 | 8.0 | 0.00 | 0.00 | 0.00 | 13 | 1021.4 |
| 20260510184007 | 82 | 4 | 4.0 | 8.0 | 0.00 | 0.00 | 0.00 | 14 | 1021.3 |
| 20260510183546 | 82 | 28 | 11.0 | 16.0 | 0.00 | 0.00 | 0.00 | 14 | 1021.5 |
| 20260510183007 | 83 | 61 | 2.0 | 11.0 | 0.00 | 0.00 | 0.00 | 14 | 1021.6 |
| 20260510182546 | 80 | 301 | 3.0 | 9.0 | 0.00 | 0.00 | 0.00 | 14 | 1021.5 |
| 20260510182046 | 81 | 354 | 4.0 | 9.0 | 0.00 | 0.00 | 0.00 | 14 | 1021.6 |
| 20260510181547 | 81 | 299 | 3.0 | 5.0 | 0.00 | 0.00 | 0.00 | 14 | 1021.5 |
| 20260510181007 | 81 | 299 | 5.0 | 7.0 | 0.00 | 0.00 | 0.00 | 14 | 1021.7 |
| 20260510180546 | 80 | 213 | 0.0 | 10.0 | 0.00 | 0.00 | 0.00 | 15 | 1021.7 |
| 20260510180047 | 81 | 121 | 5.0 | 14.0 | 0.00 | 0.00 | 0.00 | 14 | 1021.5 |
| 20260510175547 | 82 | 213 | 3.0 | 5.0 | 0.00 | 0.00 | 0.00 | 14 | 1021.8 |
| 20260510175007 | 80 | 38 | 5.0 | 11.0 | 0.00 | 0.00 | 0.00 | 15 | 1021.5 |
| 20260510174547 | 82 | 44 | 9.0 | 11.0 | 0.00 | 0.00 | 0.00 | 14 | 1021.6 |
| 20260510172547 | 79 | 6 | 3.0 | 11.0 | 0.00 | 0.00 | 0.00 | 15 | 1021.7 |
| 20260510172007 | 79 | 2 | 5.0 | 7.0 | 0.00 | 0.00 | 0.00 | 15 | 1021.6 |
| 20260510171547 | 78 | 37 | 5.0 | 6.0 | 0.00 | 0.00 | 0.00 | 15 | 1021.5 |
| 20260510171046 | 78 | 145 | 2.0 | 9.0 | 0.00 | 0.00 | 0.00 | 15 | 1021.5 |
| 20260510170507 | 78 | 77 | 4.0 | 7.0 | 0.00 | 0.00 | 0.00 | 15 | 1021.4 |
| 20260510170047 | 79 | 86 | 3.0 | 7.0 | 0.00 | 0.00 | 0.00 | 16 | 1021.4 |
| 20260510165547 | 78 | 17 | 5.0 | 10.0 | 0.00 | 0.00 | 0.00 | 16 | 1021.5 |
| 20260510165007 | 77 | 41 | 10.0 | 13.0 | 0.00 | 0.00 | 0.00 | 16 | 1021.4 |
| 20260510164546 | 77 | 29 | 5.0 | 10.0 | 0.00 | 0.00 | 0.00 | 16 | 1021.4 |
| 20260510164046 | 76 | 84 | 3.0 | 13.0 | 0.00 | 0.00 | 0.00 | 16 | 1021.3 |
| 20260510163546 | 77 | 12 | 4.0 | 9.0 | 0.00 | 0.00 | 0.00 | 16 | 1021.4 |
| 20260510161507 | 77 | 4 | 6.0 | 7.0 | 0.00 | 0.00 | 0.00 | 18 | 1021.3 |
| 20260510161008 | 76 | 103 | 4.0 | 10.0 | 0.00 | 0.00 | 0.00 | 19 | 1021.3 |
| 20260510160547 | 77 | 35 | 5.0 | 7.0 | 0.00 | 0.00 | 0.00 | 18 | 1021.3 |
| 20260510160047 | 76 | 7 | 2.0 | 8.0 | 0.00 | 0.00 | 0.00 | 18 | 1021.4 |
| 20260510155547 | 76 | 349 | 2.0 | 5.0 | 0.00 | 0.00 | 0.00 | 18 | 1021.4 |
| 20260510155046 | 75 | 319 | 5.0 | 5.0 | 0.00 | 0.00 | 0.00 | 18 | 1021.3 |
| 20260510154546 | 75 | 18 | 5.0 | 9.0 | 0.00 | 0.00 | 0.00 | 18 | 1021.1 |
| 20260510154007 | 75 | 28 | 6.0 | 8.0 | 0.00 | 0.00 | 0.00 | 18 | 1020.9 |
| 20260510153547 | 75 | 65 | 2.0 | 6.0 | 0.00 | 0.00 | 0.00 | 19 | 1021.0 |
| 20260510153047 | 74 | 33 | 5.0 | 7.0 | 0.00 | 0.00 | 0.00 | 19 | 1020.9 |
| 20260510152507 | 74 | 356 | 0.0 | 4.0 | 0.00 | 0.00 | 0.00 | 19 | 1021.1 |
| 20260510152007 | 75 | 37 | 2.0 | 6.0 | 0.00 | 0.00 | 0.00 | 19 | 1021.0 |
| 20260510151547 | 74 | 64 | 2.0 | 6.0 | 0.00 | 0.00 | 0.00 | 19 | 1021.0 |
| 20260510151008 | 75 | 46 | 4.0 | 5.0 | 0.00 | 0.00 | 0.00 | 18 | 1020.8 |
| 20260510150547 | 75 | 344 | 3.0 | 4.0 | 0.00 | 0.00 | 0.00 | 17 | 1020.9 |
| 20260510150046 | 73 | 113 | 2.0 | 4.0 | 0.00 | 0.00 | 0.00 | 18 | 1020.8 |
| 20260510145546 | 73 | 33 | 5.0 | 5.0 | 0.00 | 0.00 | 0.00 | 18 | 1020.7 |
| 20260510145047 | 74 | 35 | 0.0 | 5.0 | 0.00 | 0.00 | 0.00 | 18 | 1020.9 |
| 20260510144546 | 73 | 25 | 2.0 | 3.0 | 0.00 | 0.00 | 0.00 | 19 | 1020.8 |
| 20260510144046 | 73 | 123 | 0.0 | 3.0 | 0.00 | 0.00 | 0.00 | 18 | 1020.7 |
| 20260510143547 | 72 | 273 | 2.0 | 2.0 | 0.00 | 0.00 | 0.00 | 20 | 1020.7 |
| 20260510143006 | 70 | 303 | 2.0 | 3.0 | 0.00 | 0.00 | 0.00 | 21 | 1020.5 |
| 20260510142546 | 71 | 234 | 0.0 | 2.0 | 0.00 | 0.00 | 0.00 | 22 | 1020.5 |
| 20260510142046 | 70 | 185 | 0.0 | 2.0 | 0.00 | 0.00 | 0.00 | 23 | 1020.6 |
| 20260510141547 | 68 | 131 | 2.0 | 2.0 | 0.00 | 0.00 | 0.00 | 23 | 1020.6 |
| 20260510141047 | 67 | 275 | 0.0 | 2.0 | 0.00 | 0.00 | 0.00 | 27 | 1020.6 |
| 20260510140547 | 65 | 200 | 0.0 | 3.0 | 0.00 | 0.00 | 0.00 | 28 | 1020.5 |
| 20260510140006 | 63 | 279 | 0.0 | 3.0 | 0.00 | 0.00 | 0.00 | 30 | 1020.4 |
| 20260510135546 | 63 | 259 | 3.0 | 3.0 | 0.00 | 0.00 | 0.00 | 29 | 1020.4 |
| 20260510135046 | 62 | 264 | 3.0 | 3.0 | 0.00 | 0.00 | 0.00 | 30 | 1020.4 |
| 20260510125007 | 54 | 264 | 3.0 | 4.0 | 0.00 | 0.00 | 0.00 | 29 | 1020.0 |
| 20260510124546 | 53 | 280 | 3.0 | 3.0 | 0.00 | 0.00 | 0.00 | 29 | 1019.9 |
| 20260510124047 | 53 | 269 | 3.0 | 4.0 | 0.00 | 0.00 | 0.00 | 29 | 1019.8 |
| 20260510123546 | 54 | 267 | 3.0 | 5.0 | 0.00 | 0.00 | 0.00 | 29 | 1019.9 |
| 20260510123046 | 54 | 260 | 5.0 | 5.0 | 0.00 | 0.00 | 0.00 | 28 | 1019.9 |
| 20260510122546 | 54 | 263 | 5.0 | 5.0 | 0.00 | 0.00 | 0.00 | 29 | 1019.9 |
| 20260510122006 | 53 | 262 | 5.0 | 5.0 | 0.00 | 0.00 | 0.00 | 29 | 1019.8 |
| 20260510121546 | 54 | 256 | 3.0 | 5.0 | 0.00 | 0.00 | 0.00 | 29 | 1019.5 |
| 20260510121047 | 53 | 267 | 5.0 | 6.0 | 0.00 | 0.00 | 0.00 | 29 | 1019.5 |
| 20260510120507 | 53 | 250 | 4.0 | 5.0 | 0.00 | 0.00 | 0.00 | 29 | 1019.7 |
| 20260510120007 | 53 | 266 | 5.0 | 6.0 | 0.00 | 0.00 | 0.00 | 29 | 1019.7 |
| 20260510115547 | 53 | 273 | 4.0 | 5.0 | 0.00 | 0.00 | 0.00 | 29 | 1019.7 |
| 20260510113547 | 54 | 276 | 4.0 | 5.0 | 0.00 | 0.00 | 0.00 | 29 | 1019.5 |
| 20260510113007 | 54 | 263 | 3.0 | 4.0 | 0.00 | 0.00 | 0.00 | 28 | 1019.5 |
| 20260510112547 | 55 | 266 | 4.0 | 5.0 | 0.00 | 0.00 | 0.00 | 27 | 1019.5 |
| 20260510112046 | 54 | 282 | 4.0 | 5.0 | 0.00 | 0.00 | 0.00 | 28 | 1019.7 |
| 20260510111507 | 55 | 276 | 3.0 | 4.0 | 0.00 | 0.00 | 0.00 | 28 | 1019.6 |
| 20260510111007 | 56 | 306 | 2.0 | 4.0 | 0.00 | 0.00 | 0.00 | 27 | 1019.7 |
| 20260510110547 | 56 | 305 | 3.0 | 4.0 | 0.00 | 0.00 | 0.00 | 26 | 1019.7 |
| 20260510110047 | 57 | 273 | 3.0 | 4.0 | 0.00 | 0.00 | 0.00 | 26 | 1019.5 |
| 20260510105546 | 57 | 295 | 3.0 | 4.0 | 0.00 | 0.00 | 0.00 | 25 | 1019.5 |
| 20260510105046 | 58 | 278 | 3.0 | 3.0 | 0.00 | 0.00 | 0.00 | 25 | 1019.4 |
| 20260510104547 | 58 | 247 | 2.0 | 4.0 | 0.00 | 0.00 | 0.00 | 24 | 1019.6 |
| 20260510104007 | 61 | 229 | 0.0 | 4.0 | 0.00 | 0.00 | 0.00 | 23 | 1019.7 |
| 20260510103546 | 63 | 267 | 2.0 | 4.0 | 0.00 | 0.00 | 0.00 | 22 | 1019.6 |
| 20260510103047 | 63 | 292 | 4.0 | 4.0 | 0.00 | 0.00 | 0.00 | 21 | 1019.5 |
| 20260510102508 | 63 | 334 | 3.0 | 4.0 | 0.00 | 0.00 | 0.00 | 21 | 1019.4 |
| 20260510102008 | 62 | 8 | 3.0 | 5.0 | 0.00 | 0.00 | 0.00 | 22 | 1019.5 |
| 20260510101547 | 63 | 9 | 5.0 | 6.0 | 0.00 | 0.00 | 0.00 | 21 | 1019.4 |
| 20260510101008 | 64 | 266 | 4.0 | 8.0 | 0.00 | 0.00 | 0.00 | 20 | 1019.2 |
| 20260510100546 | 65 | 272 | 4.0 | 6.0 | 0.00 | 0.00 | 0.00 | 20 | 1019.0 |
| 20260510100046 | 65 | 271 | 5.0 | 8.0 | 0.00 | 0.00 | 0.00 | 20 | 1019.2 |
| 20260510095546 | 64 | 284 | 4.0 | 7.0 | 0.00 | 0.00 | 0.00 | 20 | 1019.0 |
| 20260510095007 | 64 | 267 | 7.0 | 10.0 | 0.00 | 0.00 | 0.00 | 20 | 1018.9 |
| 20260510094547 | 64 | 263 | 6.0 | 9.0 | 0.00 | 0.00 | 0.00 | 20 | 1019.0 |
| 20260510094047 | 64 | 249 | 7.0 | 9.0 | 0.00 | 0.00 | 0.00 | 20 | 1019.0 |
| 20260510093546 | 64 | 262 | 6.0 | 8.0 | 0.00 | 0.00 | 0.00 | 20 | 1018.9 |
| 20260510093007 | 65 | 264 | 7.0 | 7.0 | 0.00 | 0.00 | 0.00 | 20 | 1019.2 |
| 20260510092547 | 65 | 269 | 7.0 | 8.0 | 0.00 | 0.00 | 0.00 | 20 | 1019.0 |
| 20260510092047 | 65 | 260 | 5.0 | 7.0 | 0.00 | 0.00 | 0.00 | 20 | 1019.0 |
| 20260510091547 | 65 | 259 | 7.0 | 7.0 | 0.00 | 0.00 | 0.00 | 20 | 1018.9 |
| 20260510091047 | 64 | 256 | 6.0 | 7.0 | 0.00 | 0.00 | 0.00 | 20 | 1018.9 |
| 20260510090547 | 64 | 262 | 6.0 | 7.0 | 0.00 | 0.00 | 0.00 | 20 | 1018.7 |
| 20260510090007 | 64 | 254 | 7.0 | 10.0 | 0.00 | 0.00 | 0.00 | 20 | 1018.8 |
| 20260510085547 | 64 | 261 | 7.0 | 10.0 | 0.00 | 0.00 | 0.00 | 20 | 1018.9 |
| 20260510084007 | 64 | 249 | 9.0 | 9.0 | 0.00 | 0.00 | 0.00 | 20 | 1018.9 |
| 20260510083527 | 65 | 248 | 7.0 | 8.0 | 0.00 | 0.00 | 0.00 | 21 | 1018.9 |
| 20260510083047 | 65 | 258 | 6.0 | 9.0 | 0.00 | 0.00 | 0.00 | 20 | 1019.0 |
| 20260510082546 | 65 | 263 | 5.0 | 8.0 | 0.00 | 0.00 | 0.00 | 20 | 1018.9 |
| 20260510082047 | 66 | 265 | 7.0 | 8.0 | 0.00 | 0.00 | 0.00 | 20 | 1019.0 |
| 20260510081547 | 66 | 266 | 6.0 | 8.0 | 0.00 | 0.00 | 0.00 | 20 | 1018.9 |
| 20260510081007 | 65 | 264 | 6.0 | 9.0 | 0.00 | 0.00 | 0.00 | 20 | 1018.8 |
| 20260510080547 | 65 | 257 | 5.0 | 7.0 | 0.00 | 0.00 | 0.00 | 21 | 1018.9 |
| 20260510080047 | 64 | 249 | 6.0 | 8.0 | 0.00 | 0.00 | 0.00 | 21 | 1018.9 |
| 20260510074546 | 64 | 263 | 5.0 | 9.0 | 0.00 | 0.00 | 0.00 | 21 | 1019.2 |
| 20260510074047 | 64 | 274 | 5.0 | 9.0 | 0.00 | 0.00 | 0.00 | 21 | 1018.9 |
| 20260510073547 | 64 | 237 | 4.0 | 6.0 | 0.00 | 0.00 | 0.00 | 22 | 1019.0 |
| 20260510073047 | 64 | 247 | 6.0 | 7.0 | 0.00 | 0.00 | 0.00 | 21 | 1019.0 |
| 20260510072547 | 64 | 245 | 4.0 | 7.0 | 0.00 | 0.00 | 0.00 | 21 | 1018.9 |
| 20260510072007 | 64 | 225 | 2.0 | 7.0 | 0.00 | 0.00 | 0.00 | 21 | 1018.9 |
| 20260510071546 | 65 | 234 | 3.0 | 7.0 | 0.00 | 0.00 | 0.00 | 21 | 1018.7 |
| 20260510071046 | 65 | 267 | 6.0 | 8.0 | 0.00 | 0.00 | 0.00 | 20 | 1019.0 |
| 20260510065047 | 66 | 265 | 5.0 | 6.0 | 0.00 | 0.00 | 0.00 | 20 | 1019.0 |
| 20260510064546 | 66 | 265 | 4.0 | 5.0 | 0.00 | 0.00 | 0.00 | 20 | 1018.8 |
| 20260510064047 | 66 | 229 | 3.0 | 4.0 | 0.00 | 0.00 | 0.00 | 20 | 1018.8 |
| 20260510062047 | 67 | 267 | 5.0 | 5.0 | 0.00 | 0.00 | 0.00 | 20 | 1018.7 |
| 20260510061507 | 67 | 262 | 4.0 | 5.0 | 0.00 | 0.00 | 0.00 | 20 | 1018.7 |
| 20260510061007 | 68 | 226 | 4.0 | 7.0 | 0.00 | 0.00 | 0.00 | 20 | 1018.6 |
| 20260510060546 | 67 | 265 | 5.0 | 6.0 | 0.00 | 0.00 | 0.00 | 20 | 1018.6 |
| 20260510060047 | 68 | 266 | 5.0 | 7.0 | 0.00 | 0.00 | 0.00 | 20 | 1018.6 |
| 20260510055547 | 67 | 262 | 4.0 | 6.0 | 0.00 | 0.00 | 0.00 | 20 | 1018.6 |
| 20260510055047 | 67 | 249 | 3.0 | 5.0 | 0.00 | 0.00 | 0.00 | 20 | 1018.5 |
| 20260510054547 | 68 | 268 | 5.0 | 8.0 | 0.00 | 0.00 | 0.00 | 19 | 1018.5 |
| 20260510054008 | 68 | 260 | 6.0 | 9.0 | 0.00 | 0.00 | 0.00 | 19 | 1018.4 |
| 20260510053547 | 68 | 263 | 9.0 | 9.0 | 0.00 | 0.00 | 0.00 | 19 | 1018.6 |
| 20260510053047 | 68 | 265 | 6.0 | 9.0 | 0.00 | 0.00 | 0.00 | 19 | 1018.5 |
| 20260510052508 | 68 | 264 | 6.0 | 7.0 | 0.00 | 0.00 | 0.00 | 19 | 1018.6 |
| 20260510052008 | 68 | 265 | 6.0 | 7.0 | 0.00 | 0.00 | 0.00 | 20 | 1018.4 |
| 20260510051547 | 68 | 262 | 4.0 | 8.0 | 0.00 | 0.00 | 0.00 | 19 | 1018.6 |
| 20260510051008 | 68 | 267 | 6.0 | 9.0 | 0.00 | 0.00 | 0.00 | 20 | 1018.5 |
| 20260510050547 | 68 | 268 | 7.0 | 9.0 | 0.00 | 0.00 | 0.00 | 19 | 1018.6 |
| 20260510050047 | 68 | 265 | 6.0 | 7.0 | 0.00 | 0.00 | 0.00 | 19 | 1018.5 |
| 20260510045546 | 68 | 269 | 5.0 | 7.0 | 0.00 | 0.00 | 0.00 | 19 | 1018.6 |
| 20260510045027 | 68 | 253 | 4.0 | 7.0 | 0.00 | 0.00 | 0.00 | 19 | 1018.6 |
| 20260510044546 | 69 | 271 | 6.0 | 8.0 | 0.00 | 0.00 | 0.00 | 19 | 1018.6 |
| 20260510044046 | 69 | 250 | 4.0 | 6.0 | 0.00 | 0.00 | 0.00 | 19 | 1018.5 |
| 20260510043546 | 69 | 253 | 6.0 | 6.0 | 0.00 | 0.00 | 0.00 | 19 | 1018.6 |
| 20260510041546 | 69 | 260 | 4.0 | 9.0 | 0.00 | 0.00 | 0.00 | 19 | 1018.4 |
| 20260510041046 | 69 | 266 | 5.0 | 8.0 | 0.00 | 0.00 | 0.00 | 19 | 1018.5 |
| 20260510040546 | 69 | 261 | 5.0 | 5.0 | 0.00 | 0.00 | 0.00 | 19 | 1018.5 |
| 20260510040007 | 69 | 242 | 4.0 | 5.0 | 0.00 | 0.00 | 0.00 | 20 | 1018.0 |
| 20260510035547 | 69 | 237 | 3.0 | 4.0 | 0.00 | 0.00 | 0.00 | 19 | 1018.1 |
| 20260510035047 | 69 | 258 | 4.0 | 5.0 | 0.00 | 0.00 | 0.00 | 19 | 1018.2 |
| 20260510030047 | 71 | 257 | 5.0 | 7.0 | 0.00 | 0.00 | 0.00 | 20 | 1017.7 |
| 20260510025508 | 71 | 241 | 3.0 | 6.0 | 0.00 | 0.00 | 0.00 | 20 | 1017.6 |
| 20260510025047 | 71 | 279 | 5.0 | 6.0 | 0.00 | 0.00 | 0.00 | 20 | 1017.5 |
| 20260510024547 | 71 | 256 | 5.0 | 8.0 | 0.00 | 0.00 | 0.00 | 20 | 1017.7 |
| 20260510024047 | 71 | 254 | 3.0 | 5.0 | 0.00 | 0.00 | 0.00 | 20 | 1017.7 |
| 20260510023546 | 71 | 268 | 3.0 | 5.0 | 0.00 | 0.00 | 0.00 | 20 | 1017.6 |
| 20260510023046 | 72 | 240 | 5.0 | 5.0 | 0.00 | 0.00 | 0.00 | 20 | 1017.7 |
| 20260510022546 | 73 | 248 | 4.0 | 9.0 | 0.00 | 0.00 | 0.00 | 19 | 1017.5 |
| 20260510022008 | 73 | 240 | 4.0 | 7.0 | 0.00 | 0.00 | 0.00 | 19 | 1017.6 |
| 20260510021547 | 74 | 222 | 8.0 | 9.0 | 0.00 | 0.00 | 0.00 | 19 | 1017.6 |
| 20260510021047 | 74 | 225 | 3.0 | 8.0 | 0.00 | 0.00 | 0.00 | 19 | 1017.2 |
| 20260510020507 | 75 | 252 | 3.0 | 6.0 | 0.00 | 0.00 | 0.00 | 19 | 1017.3 |
| 20260510020046 | 76 | 220 | 6.0 | 11.0 | 0.00 | 0.00 | 0.00 | 18 | 1017.2 |
| 20260510015546 | 76 | 268 | 4.0 | 9.0 | 0.00 | 0.00 | 0.00 | 18 | 1017.4 |
| 20260510015007 | 77 | 220 | 5.0 | 13.0 | 0.00 | 0.00 | 0.00 | 18 | 1017.2 |
| 20260510014546 | 77 | 224 | 6.0 | 7.0 | 0.00 | 0.00 | 0.00 | 18 | 1017.3 |
| 20260510014046 | 77 | 205 | 7.0 | 10.0 | 0.00 | 0.00 | 0.00 | 18 | 1017.1 |
| 20260510013547 | 78 | 260 | 9.0 | 13.0 | 0.00 | 0.00 | 0.00 | 17 | 1017.0 |
| 20260510013007 | 78 | 249 | 8.0 | 12.0 | 0.00 | 0.00 | 0.00 | 17 | 1017.2 |
| 20260510012546 | 79 | 233 | 4.0 | 7.0 | 0.00 | 0.00 | 0.00 | 17 | 1017.2 |
| 20260510012046 | 79 | 211 | 9.0 | 9.0 | 0.00 | 0.00 | 0.00 | 17 | 1017.1 |
| 20260510011546 | 79 | 232 | 14.0 | 16.0 | 0.00 | 0.00 | 0.00 | 17 | 1017.1 |
| 20260510011007 | 78 | 258 | 15.0 | 20.0 | 0.00 | 0.00 | 0.00 | 17 | 1017.0 |
| 20260510010546 | 79 | 249 | 7.0 | 13.0 | 0.00 | 0.00 | 0.00 | 17 | 1017.0 |
| 20260510010047 | 79 | 222 | 9.0 | 12.0 | 0.00 | 0.00 | 0.00 | 17 | 1016.8 |
| 20260510005546 | 80 | 219 | 7.0 | 12.0 | 0.00 | 0.00 | 0.00 | 17 | 1016.8 |
| 20260510005046 | 80 | 216 | 13.0 | 15.0 | 0.00 | 0.00 | 0.00 | 17 | 1017.0 |
| 20260510004547 | 80 | 243 | 7.0 | 13.0 | 0.00 | 0.00 | 0.00 | 17 | 1017.1 |
| 20260510004008 | 80 | 265 | 10.0 | 19.0 | 0.00 | 0.00 | 0.00 | 17 | 1017.0 |
| 20260510003546 | 80 | 193 | 9.0 | 14.0 | 0.00 | 0.00 | 0.00 | 17 | 1017.2 |
| 20260510003047 | 80 | 271 | 7.0 | 12.0 | 0.00 | 0.00 | 0.00 | 17 | 1017.0 |
| 20260510002507 | 80 | 215 | 7.0 | 17.0 | 0.00 | 0.00 | 0.00 | 17 | 1017.1 |
| 20260510002007 | 80 | 254 | 13.0 | 15.0 | 0.00 | 0.00 | 0.00 | 17 | 1017.2 |
| 20260510001546 | 80 | 248 | 5.0 | 22.0 | 0.00 | 0.00 | 0.00 | 17 | 1017.1 |
| 20260510001007 | 80 | 238 | 10.0 | 18.0 | 0.00 | 0.00 | 0.00 | 17 | 1017.1 |
| 20260510000546 | 80 | 271 | 11.0 | 20.0 | 0.00 | 0.00 | 0.00 | 17 | 1017.2 |
| 20260510000046 | 80 | 216 | 17.0 | 20.0 | 0.00 | 0.00 | 0.00 | 17 | 1017.2 |
| 20260509235546 | 81 | 264 | 8.0 | 13.0 | 0.00 | 0.00 | 0.00 | 16 | 1017.1 |
| 20260509235046 | 81 | 219 | 7.0 | 16.0 | 0.00 | 0.00 | 0.00 | 17 | 1017.2 |
| 20260509233008 | 81 | 267 | 9.0 | 15.0 | 0.00 | 0.00 | 0.00 | 16 | 1017.2 |
| 20260509232546 | 82 | 219 | 7.0 | 12.0 | 0.00 | 0.00 | 0.00 | 15 | 1017.1 |
| 20260509232047 | 82 | 214 | 8.0 | 17.0 | 0.00 | 0.00 | 0.00 | 15 | 1017.3 |
| 20260509231547 | 80 | 241 | 5.0 | 8.0 | 0.00 | 0.00 | 0.00 | 16 | 1017.2 |
| 20260509231047 | 80 | 214 | 8.0 | 17.0 | 0.00 | 0.00 | 0.00 | 16 | 1017.4 |
| 20260509230547 | 81 | 227 | 5.0 | 17.0 | 0.00 | 0.00 | 0.00 | 16 | 1017.4 |
| 20260509230008 | 81 | 251 | 5.0 | 16.0 | 0.00 | 0.00 | 0.00 | 16 | 1017.5 |
| 20260509225546 | 81 | 267 | 8.0 | 20.0 | 0.00 | 0.00 | 0.00 | 16 | 1017.6 |
| 20260509225046 | 80 | 269 | 9.0 | 20.0 | 0.00 | 0.00 | 0.00 | 16 | 1017.6 |
| 20260509224508 | 81 | 218 | 13.0 | 18.0 | 0.00 | 0.00 | 0.00 | 16 | 1017.4 |
| 20260509224008 | 82 | 267 | 11.0 | 14.0 | 0.00 | 0.00 | 0.00 | 15 | 1017.3 |
| 20260509223546 | 82 | 227 | 8.0 | 15.0 | 0.00 | 0.00 | 0.00 | 15 | 1017.5 |
| 20260509223008 | 81 | 230 | 7.0 | 15.0 | 0.00 | 0.00 | 0.00 | 16 | 1017.6 |
| 20260509222546 | 80 | 260 | 6.0 | 20.0 | 0.00 | 0.00 | 0.00 | 16 | 1017.5 |
| 20260509222046 | 82 | 257 | 8.0 | 9.0 | 0.00 | 0.00 | 0.00 | 15 | 1017.7 |
| 20260509221546 | 81 | 225 | 8.0 | 17.0 | 0.00 | 0.00 | 0.00 | 16 | 1017.8 |
| 20260509221047 | 80 | 238 | 7.0 | 22.0 | 0.00 | 0.00 | 0.00 | 16 | 1017.9 |
| 20260509220546 | 80 | 204 | 20.0 | 22.0 | 0.00 | 0.00 | 0.00 | 15 | 1018.0 |
| 20260509220047 | 81 | 226 | 9.0 | 20.0 | 0.00 | 0.00 | 0.00 | 15 | 1017.9 |
| 20260509214047 | 81 | 269 | 10.0 | 16.0 | 0.00 | 0.00 | 0.00 | 15 | 1018.1 |
| 20260509213547 | 80 | 222 | 11.0 | 25.0 | 0.00 | 0.00 | 0.00 | 16 | 1018.2 |
| 20260509213047 | 82 | 261 | 18.0 | 22.0 | 0.00 | 0.00 | 0.00 | 15 | 1018.0 |
| 20260509212546 | 81 | 211 | 9.0 | 17.0 | 0.00 | 0.00 | 0.00 | 16 | 1018.2 |
| 20260509212007 | 82 | 202 | 9.0 | 18.0 | 0.00 | 0.00 | 0.00 | 16 | 1018.0 |